SNAP-3 JIMI

Last updated on Thu Sep 10 2026 00:03:43 GMT+0000 (Coordinated Universal Time)

1 40975U 15058M 26252.17412241 .00003426 00000+0 23276-3 0 9990 2 40975 64.7652 313.8516 0112900 22.8740 337.7348 15.03103159126844
UTC large
Height (km)
Speed (km/s)
/
Latitude / Longitude
Inclination (degrees)
Orbital Period (minutes)
Azimuth
Elevation
Range (km)
Doppler Factor

Next 0 passes for location: London (51.5072 / 0.1276)

No passes found over London.
SNAP-3 JIMI